Location: Bowden
(51.9167°N, 114.0333°W)
Time: 05:54:55
(UTC+00:00)

ISS - Visible Passes

Search period start: 27 November 2021 00:00
Search period end: 07 December 2021 00:00
Orbit: 417 x 423 km, 51.6° (Epoch: 27 November)

Date Brightness Start Highest point End Pass type
(mag) Time Alt. Az. Time Alt. Az. Time Alt. Az.
27 Nov -3.2 00:33:41 10° SW 00:36:59 50° SSE 00:39:44 14° E visible
27 Nov -2.5 02:10:19 10° W 02:12:43 43° W 02:12:43 43° W visible
28 Nov -3.8 01:23:10 10° W 01:26:34 84° S 01:27:25 48° E visible
28 Nov -0.4 03:00:01 10° W 03:00:24 13° W 03:00:24 13° W visible
29 Nov -3.7 00:36:00 10° WSW 00:39:25 76° S 00:42:06 15° E visible
29 Nov -2.3 02:12:50 10° W 02:15:05 39° W 02:15:05 39° W visible
30 Nov -3.8 01:25:38 10° W 01:29:03 87° S 01:29:47 52° E visible
30 Nov -0.3 03:02:30 10° W 03:02:46 12° W 03:02:46 12° W visible
01 Dec -3.7 00:38:26 10° W 00:41:50 88° S 00:44:30 16° E visible
01 Dec -2.1 02:15:16 10° W 02:17:29 35° W 02:17:29 35° W visible
02 Dec -3.6 01:28:02 10° W 01:31:26 69° SSW 01:32:15 46° SE visible
02 Dec -0.2 03:05:08 10° W 03:05:14 11° W 03:05:14 11° W visible
03 Dec -3.7 00:40:48 10° W 00:44:13 80° S 00:47:04 14° ESE visible
03 Dec -1.8 02:17:44 10° W 02:20:03 28° SW 02:20:03 28° SW visible
04 Dec -2.7 01:30:25 10° W 01:33:40 43° SSW 01:34:58 28° SSE visible
05 Dec -3.1 00:43:06 10° W 00:46:27 55° SSW 00:49:47 10° ESE visible
05 Dec -1.2 02:20:31 10° W 02:22:47 17° SW 02:23:01 17° SSW visible
06 Dec -1.5 01:32:54 10° W 01:35:40 23° SSW 01:38:15 11° SSE visible
